[[{"header":{"parameterUnit":"m.s-1","parameterCategory":1,"la1":30.2991,"la2":30.254,"lo1":-89.0895,"lo2":-89.0444,"dy":0.0017,"dx":0.0017,"nx":28,"ny":28,"refTime":"2024-08-11T15:00:00:Z","depth":0,"parameterNumber":2,"parameterNumberName":"U-component_of_WINDS"},"data":[0,0,0,0,0,0,0,0,0,0,0,0,0,0,0,0,0,0,0,0,0,0,0,0,0,0,0,0,0,0,0,0,0,0,0,0,0,0,0,0,0,0,0,0,0,0,0,0,0,0,0,0,0,0,0,0,0,0,5.1446,5.1447,0,5.1563,5.1565,5.1566,5.1486,5.1482,5.1478,5.1475,5.1594,5.16,5.1606,0,0,0,0,0,0,0,0,0,0,0,0,0,5.1147,5.1153,5.1445,5.1447,5.1448,5.1563,5.1565,5.1566,5.1486,5.1482,5.1477,5.1473,5.1591,5.1599,5.1607,0,0,0,0,0,0,0,0,0,0,0,0,0,5.1272,5.1155,5.1445,5.1422,5.1421,5.1563,5.1565,5.1567,5.1487,5.1482,5.1476,5.1471,5.1589,5.1598,5.1608,5.1778,0,0,5.1638,5.1642,0,0,0,0,0,0,0,0,5.1265,5.1283,5.1424,5.1424,5.1423,5.1504,5.1503,5.1638,5.1489,5.1462,5.1475,5.1469,5.1568,5.1579,5.1613,5.1783,5.1789,5.1639,5.1645,5.1649,5.1652,0,0,0,0,0,0,0,5.1257,5.1278,5.1492,5.1426,5.1426,5.1405,5.1417,5.1528,5.1544,5.1464,5.1459,5.1474,5.1567,5.1604,5.1616,5.179,5.1639,5.1647,5.1653,5.1657,5.2103,5.2109,0,0,0,0,0,0,5.125,5.1271,5.1488,5.1495,5.1329,5.1415,5.1428,5.1484,5.1543,5.1547,5.1478,5.147,5.159,5.1604,5.1619,5.182,5.1649,5.1658,5.1664,5.2097,5.2104,5.2111,0,0,0,0,0,0,5.1244,5.1271,5.1483,5.1382,5.1407,5.1426,5.1489,5.1489,5.1526,5.1554,5.1556,5.1514,5.1586,5.1606,5.1739,5.1823,5.1663,5.1672,5.209,5.2099,5.2107,5.2223,0,0,0,0,0,0,5.1236,5.1269,5.1334,5.1384,5.1413,5.1602,5.1494,5.1495,5.1544,5.1533,5.1587,5.1591,5.1583,5.1724,5.1748,5.1833,5.1679,5.2082,5.2094,5.2105,5.2212,5.2235,5.2255,0,0,0,0,0,5.1226,5.1362,5.1338,5.1365,5.1496,5.1607,5.1624,5.1613,5.1551,5.1616,5.1633,5.1589,5.181,5.1739,5.1765,5.1854,5.2077,5.2091,5.2104,5.2202,5.2231,5.2254,0,0,0,0,0,0,5.1322,5.1368,5.1342,5.1499,5.155,5.1593,5.1675,5.1643,5.1712,5.1699,5.1683,5.1696,5.1834,5.1858,5.1777,5.202,5.1934,5.1953,5.2,5.2027,5.2048,5.2038,5.1687,0,0,0,0,0,5.1361,5.1449,5.1485,5.162,5.1646,5.1657,5.1705,5.1692,5.1744,5.1765,5.1792,5.1843,5.1923,5.1977,5.2053,5.2216,5.2225,5.229,5.2312,5.2329,5.2345,5.243,5.2459,5.2155,5.2154,5.2154,0,0,5.1443,5.148,5.1536,5.164,5.1677,5.1767,5.1675,5.1774,5.184,5.1779,5.1906,5.1928,5.1984,5.2132,5.2199,5.2156,5.2431,5.2346,5.236,5.2366,5.2447,5.2476,5.2501,5.2164,5.2162,5.2161,0,0,5.1638,5.1676,5.1791,5.1831,5.1889,5.1895,5.1923,5.1972,5.1984,5.2111,5.2067,5.2145,5.2285,5.2325,5.2364,5.2575,5.2535,5.26,5.2711,5.2794,5.2818,5.2839,5.2911,5.2938,5.2616,5.2617,5.2617,0,5.1732,5.1866,5.1854,5.1956,5.2002,5.1952,5.2068,5.2107,5.2187,5.2219,5.2171,5.2344,5.2379,5.2534,5.2585,5.262,5.2649,5.2592,5.2816,5.2837,5.2856,5.2925,5.2952,5.2624,5.2623,5.2622,5.2622,0,5.1978,5.2072,5.2158,5.2237,5.2293,5.2401,5.2404,5.2462,5.2445,5.2455,5.2584,5.2624,5.2706,5.2742,5.2727,5.2896,5.2867,5.2818,5.273,5.2893,5.2957,5.2983,5.2634,5.2632,5.2629,5.2628,0,0,5.2235,5.2306,5.2337,5.2371,5.2432,5.2504,5.261,5.269,5.2739,5.2797,5.2883,5.3003,5.2957,5.3001,5.299,5.3064,5.3224,5.3005,5.3006,5.3042,5.3409,5.3444,5.3475,5.32,5.3205,5.3209,5.3404,0,5.2431,5.2615,5.2607,5.2779,5.2864,5.2818,5.291,5.2956,5.2969,5.3042,5.3056,5.314,5.3075,5.3101,5.3173,5.3189,5.3297,5.3176,5.3277,5.3281,5.3262,5.3508,5.3546,5.3728,5.3429,5.3433,5.3436,0,5.2684,5.2749,5.293,5.2977,5.3012,5.3095,5.3167,5.3238,5.329,5.3294,5.3343,5.332,5.3425,5.3336,5.348,5.3397,5.3439,5.3453,5.346,5.3466,5.3367,5.3519,5.3786,5.3812,5.3476,5.3473,5.347,0,5.2849,5.2983,5.3108,5.3139,5.3198,5.3256,5.3283,5.3329,5.3378,5.3441,5.3472,5.3547,5.3587,5.3645,5.3641,5.3578,5.3786,5.3698,5.379,5.379,5.3834,5.383,5.4108,5.3866,5.3866,5.3865,5.3864,0,5.3067,5.3178,5.3183,5.3259,5.3382,5.3372,5.3493,5.3514,5.3555,5.3634,5.3599,5.3673,5.3666,5.374,5.3738,5.3855,5.3875,5.3879,5.3877,5.3881,5.388,5.3905,5.3891,5.3872,5.3871,5.3869,5.3868,0,5.3271,5.3279,5.3411,5.3456,5.347,5.3558,5.3596,5.3667,5.3678,5.3777,5.38,5.3816,5.3901,5.3904,5.4003,5.4001,5.4143,5.4129,5.4126,5.4122,5.4213,5.4203,5.4514,5.4553,5.4289,5.4292,5.4294,0,5.3408,5.3493,5.3547,5.3597,5.3628,5.371,5.3759,5.3752,5.3804,5.3868,5.3932,5.4014,5.408,5.4218,5.4238,5.4312,5.4297,5.4401,5.4308,5.4308,5.4295,5.4288,5.4295,5.4418,5.4421,5.4423,5.4425,0,5.365,5.3649,5.3722,5.3796,5.3856,5.3914,5.3968,5.4011,5.4009,5.407,5.4157,5.4208,5.4308,5.439,5.4462,5.4488,5.4456,5.4455,5.4479,5.4483,5.4476,5.4478,5.4172,5.4447,5.4445,5.4443,5.4442,5.4441,5.3822,5.3895,5.3943,5.4025,5.4065,5.4116,5.4184,5.4203,5.4276,5.4357,5.4349,5.4445,5.4493,5.4587,5.4619,5.4693,5.4657,5.4694,5.4703,5.4711,5.4719,5.4468,5.4707,5.4706,5.4706,5.4705,5.4705,0,5.4059,5.4088,5.4164,5.424,5.4304,5.427,5.4327,5.4382,5.4467,5.4515,5.458,5.4679,5.4758,5.4784,5.486,5.4914,5.4901,5.4934,5.4928,5.4934,5.4749,5.4718,5.4943,5.4943,5.4943,5.4943,5.4943,5.4943,5.4189,5.4309,5.4314,5.4452,5.448,5.4575,5.461,5.4656,5.4694,5.4806,5.4872,5.4888,5.4927,5.5005,5.5075,5.508,5.5108,5.5147,5.5146,5.4972,5.4948,5.4925,5.4896,5.5154,5.5154,5.5325,5.5326,5.5327]},{"header":{"parameterUnit":"m.s-1","parameterCategory":1,"la1":30.2991,"la2":30.254,"lo1":-89.0895,"lo2":-89.0444,"dy":0.0017,"dx":0.0017,"nx":28,"ny":28,"refTime":"2024-08-11T15:00:00:Z","depth":0,"parameterNumber":3,"parameterNumberName":"V-component_of_WINDS"},"data":[0,0,0,0,0,0,0,0,0,0,0,0,0,0,0,0,0,0,0,0,0,0,0,0,0,0,0,0,0,0,0,0,0,0,0,0,0,0,0,0,0,0,0,0,0,0,0,0,0,0,0,0,0,0,0,0,0,0,1.9443,1.9444,0,1.9501,1.9502,1.9502,1.9489,1.9488,1.9486,1.9485,1.9543,1.9546,1.9548,0,0,0,0,0,0,0,0,0,0,0,0,0,1.9319,1.9322,1.9443,1.9444,1.9445,1.9501,1.9502,1.9502,1.9489,1.9488,1.9486,1.9485,1.9543,1.9546,1.9549,0,0,0,0,0,0,0,0,0,0,0,0,0,1.9375,1.9322,1.9443,1.9445,1.9445,1.9501,1.9502,1.9503,1.9489,1.9488,1.9486,1.9484,1.9542,1.9545,1.9549,1.9606,0,0,1.9561,1.9563,0,0,0,0,0,0,0,0,1.9372,1.9379,1.9444,1.9445,1.9446,1.9486,1.9479,1.9537,1.949,1.9473,1.9485,1.9484,1.9526,1.9531,1.9545,1.9609,1.9611,1.9561,1.9564,1.9565,1.9566,0,0,0,0,0,0,0,1.9368,1.9377,1.9466,1.9445,1.9446,1.9442,1.9448,1.949,1.9508,1.9474,1.9473,1.948,1.9526,1.9541,1.9546,1.9612,1.9561,1.9565,1.9567,1.9568,1.9724,1.9725,0,0,0,0,0,0,1.9363,1.9374,1.9464,1.9468,1.9404,1.9445,1.9452,1.9475,1.9507,1.951,1.9481,1.9479,1.9536,1.9542,1.9548,1.9616,1.9565,1.9569,1.9571,1.9722,1.9724,1.9726,0,0,0,0,0,0,1.9361,1.9372,1.9462,1.942,1.9432,1.9449,1.9475,1.9477,1.9492,1.9513,1.9516,1.9494,1.9535,1.9543,1.9591,1.9618,1.9571,1.9574,1.972,1.9722,1.9725,1.9753,0,0,0,0,0,0,1.9357,1.9371,1.9393,1.9421,1.9434,1.9505,1.9476,1.9479,1.9499,1.9497,1.9526,1.9529,1.9534,1.9586,1.9595,1.9622,1.9577,1.9717,1.9721,1.9724,1.9749,1.9756,1.9762,0,0,0,0,0,1.9353,1.9399,1.9394,1.9405,1.9462,1.9506,1.9514,1.9519,1.9501,1.9523,1.9536,1.9528,1.9613,1.9591,1.9601,1.963,1.9716,1.972,1.9724,1.9747,1.9755,1.9761,0,0,0,0,0,0,1.9373,1.9402,1.9398,1.9454,1.9478,1.9504,1.9532,1.9527,1.9556,1.9553,1.9557,1.9564,1.9613,1.9627,1.9601,1.9686,1.9662,1.9668,1.9676,1.9683,1.9689,1.9685,1.958,0,0,0,0,0,1.9384,1.9418,1.9442,1.9489,1.9501,1.9515,1.9534,1.9536,1.9561,1.957,1.9587,1.9611,1.9643,1.9664,1.9695,1.9751,1.9757,1.9776,1.9782,1.9787,1.9792,1.9822,1.983,1.9739,1.9739,1.9739,0,0,1.9408,1.9428,1.9449,1.9494,1.9512,1.9546,1.9523,1.9561,1.9586,1.9576,1.9623,1.9636,1.9662,1.9715,1.9739,1.9727,1.9818,1.9792,1.9796,1.9799,1.9827,1.9835,1.9843,1.9742,1.9741,1.9741,0,0,1.9467,1.9486,1.9527,1.9546,1.9575,1.9583,1.9593,1.962,1.9628,1.9675,1.9668,1.9697,1.9753,1.9772,1.9789,1.9854,1.9847,1.9864,1.9896,1.9924,1.9932,1.9938,1.996,1.9968,1.9869,1.9869,1.9869,0,1.9492,1.9544,1.9549,1.9587,1.9606,1.9599,1.964,1.9658,1.9695,1.9708,1.9694,1.9763,1.9781,1.9837,1.9853,1.9867,1.9877,1.9861,1.993,1.9937,1.9943,1.9964,1.9973,1.9871,1.9871,1.9871,1.9871,0,1.9573,1.9609,1.9639,1.9675,1.9697,1.9737,1.9746,1.9769,1.9768,1.9778,1.9825,1.9846,1.988,1.9893,1.9893,1.9949,1.9941,1.9929,1.9905,1.9953,1.9973,1.9982,1.9874,1.9873,1.9873,1.9872,0,0,1.9648,1.9685,1.9696,1.9712,1.9742,1.9769,1.9808,1.9841,1.986,1.9885,1.9917,1.9963,1.9952,1.9971,1.9973,1.9998,2.0047,1.9983,1.9983,1.9993,2.0109,2.0118,2.0127,2.0043,2.0044,2.0046,2.0106,0,1.971,1.9778,1.9783,1.9844,1.9877,1.9869,1.9903,1.9924,1.9934,1.9962,1.9973,2.0005,1.9988,1.9999,2.0024,2.0036,2.007,2.0032,2.0071,2.0073,2.0065,2.0138,2.0147,2.0204,2.0114,2.0116,2.0117,0,1.9792,1.9819,1.9884,1.9908,1.9922,1.9952,1.9982,2.001,2.0034,2.0039,2.006,2.0058,2.0096,2.007,2.0122,2.0096,2.0112,2.012,2.0123,2.0126,2.0097,2.0143,2.0222,2.023,2.0129,2.0128,2.0128,0,1.9839,1.9892,1.9937,1.9951,1.9981,2.0002,2.0015,2.0037,2.0057,2.0083,2.0095,2.0126,2.0142,2.0166,2.0171,2.0152,2.0223,2.0198,2.0228,2.0227,2.0243,2.0242,2.0325,2.0254,2.0254,2.0254,2.0254,0,1.9907,1.9947,1.9959,1.9986,2.003,2.0034,2.0077,2.0089,2.0109,2.0138,2.0133,2.0161,2.0167,2.0195,2.02,2.0242,2.0249,2.0254,2.0255,2.0254,2.0253,2.0265,2.0261,2.0256,2.0256,2.0255,2.0255,0,1.9967,1.9977,2.0025,2.005,2.0056,2.0087,2.0108,2.0134,2.0142,2.0179,2.0188,2.0202,2.0235,2.0243,2.0282,2.0285,2.0334,2.0331,2.0326,2.0326,2.0354,2.0351,2.0448,2.046,2.0382,2.0382,2.0383,0,2.001,2.004,2.0067,2.0087,2.0101,2.0132,2.0152,2.0157,2.0178,2.0206,2.0229,2.0261,2.0287,2.034,2.0353,2.0382,2.038,2.0411,2.0384,2.0382,2.0379,2.0377,2.038,2.0417,2.0417,2.0418,2.0419,0,2.0085,2.0088,2.0116,2.0147,2.017,2.0194,2.0217,2.0233,2.0241,2.0265,2.0298,2.0319,2.0358,2.039,2.042,2.0432,2.0427,2.0427,2.0435,2.0435,2.043,2.0432,2.034,2.0425,2.0424,2.0424,2.0423,2.0423,2.0137,2.0163,2.0186,2.0218,2.0235,2.0257,2.0282,2.0294,2.0322,2.0355,2.0356,2.0392,2.0414,2.0453,2.0468,2.0495,2.0486,2.0498,2.0501,2.0504,2.0506,2.0426,2.0501,2.0501,2.0501,2.05,2.05,0,2.021,2.0225,2.0254,2.0286,2.0311,2.0303,2.0328,2.0349,2.0381,2.0402,2.0428,2.0466,2.0496,2.0511,2.0541,2.056,2.0558,2.0568,2.0566,2.0569,2.0513,2.0503,2.0569,2.0569,2.0569,2.0569,2.0569,2.0569,2.0252,2.0295,2.03,2.0352,2.0366,2.0402,2.0416,2.0435,2.0452,2.0494,2.052,2.0529,2.0548,2.0579,2.0606,2.0609,2.062,2.0631,2.0633,2.058,2.0573,2.0567,2.0557,2.0634,2.0634,2.0687,2.0687,2.0688]}]]